COSMOS 2251 DEB, 34059

Orbit data source: Space-Track

COSMOS 2251 DEB, 34059 is space debris in LEO originally from a launch on Wed, 16 Jun 1993 UTC launched from the Plesetsk Missile And Space Complex (PKMTR). The debris from Iridium 33, an American commercial communications satellite, has been tracked extensively since its accidental collision with the defunct Russian satellite Cosmos 2251 in 2009. This event, occurring at high speed in low Earth orbit (LEO), generated thousands of pieces of space debris, significantly increasing the risk of further collisions. The Iridium 33 debris cloud has impacted space traffic management and orbital debris mitigation strategies, making it a subject of ongoing study in space situational awareness.

Loading next visibility...
Identifier
34059, 1993-036JW
Orbit
LEO
Country
Flag of CISCIS
Related business
Manufacturer
Unknown
Mission
Spacecraft
Bus & Motor
Unknown
Mass
Unknown
Launch date (UTC)
1993-06-16 (33 years ago)
Launch vehicle
Unknown
Launch site
Plesetsk Missile And Space Complex (PKMTR)
Object type
Payload
Rocket body
Debris
Shape & HBR
Unknown shape, 0.2 m
Radar Cross Section
Small (<0.1 m²)

Expand to show TLE details & history
Last TLE update: 3 hours ago

TLE from 3 hours ago
0 COSMOS 2251 DEB
1 34059U 93036JW  25355.21512795  .00002109  00000-0  51684-3 0  9993
2 34059  74.0367 170.2873 0018457 246.7432 227.3132 14.52991972885821
Epoch: 2025-12-21T05:09Z
TLE epoch observation values (Epoch: 2025-12-21T05:09:47.054Z)
Latitude
61.6252°
Longitude
151.02332°
Altitude
734.977 km
Speed
7.489 km/s
True Right ascension
21h 14m 00s
True Declination
61° 28' 50"
Sunlit
Object was in daylight at epoch
Visualization orbit readout
Latitude
Unknown
Longitude
Unknown
Altitude
Unknown
Speed
Unknown
Apparent Right ascension
Unknown
Apparent Declination
Unknown
Sunlit
N/A
Visualization observer readout
Local Sidereal Time
07:37:45
Azimuth
Unknown
Elevation
Unknown
Doppler factor
Unknown
Orbital elements
Apogee altitude
726.587 km
Perigee altitude
700.409 km
Semi-major axis
7,091.635 km
Eccentricity
0.00185
Inclination
74.0367°
RAAN
170.2873°
Arg. of periapsis
246.7432°
True anomaly
227.15797°
Mean anomaly
227.3132°
Eccentric anomaly
227.23556°
Mean motion
3.63432 °/min
Orbital period
99.06 mins
BSTAR
0.00051684
Loading maneuver chart data...
Computing Atmospheric mass density...

Documentation

Showing up to 5 results
|